Simultaneous Nadir Overpasses (SNOs) Predictions

Prediction of SNOs between NOAA-19 and TERRA Satellite Orbit:

Table of predicted SNOs for the next 14.0 days since TLE Epoch: 9/14/2019
Index Date (NOAA-19) Time (NOAA-19) Lat,Lon (NOAA-19) SZA (NOAA-19 ) Date (TERRA) Time (TERRA) Lat,Lon (TERRA) SZA (TERRA ) Distance(km) Time Diff (sec)
1 09/15/2019 18:56:52 -78.78, 99.25 103.15 09/15/2019 18:57:17 -78.76, 99.34 103.16 2.96 25
2 09/15/2019 19:47:55 78.72, -93.09 76.85 09/15/2019 19:46:44 78.72, -93.25 76.81 3.37 71
3 09/18/2019 00:30:19 78.78,-164.03 77.74 09/18/2019 00:31:02 78.76,-164.11 77.72 3.12 43
4 09/18/2019 01:21:14 -78.73, 3.61 102.27 09/18/2019 01:20:29 -78.76, 3.57 102.26 4.08 45
5 09/20/2019 06:03:39 -78.80, -67.47 101.38 09/20/2019 06:04:48 -78.80, -67.31 101.34 3.45 69
6 09/20/2019 06:54:41 78.75, 100.19 78.63 09/20/2019 06:54:15 78.76, 100.09 78.62 2.44 26
7 09/22/2019 12:28:02 -78.79,-163.37 100.48 09/22/2019 12:28:03 -78.76,-163.34 100.50 3.35 1
8 09/24/2019 18:01:27 78.78, -66.59 80.41 09/24/2019 18:01:50 78.79, -66.65 80.42 1.38 23
9 09/24/2019 18:52:25 -78.78, 100.72 99.58 09/24/2019 18:51:18 -78.76, 100.84 99.61 3.07 67
10 09/26/2019 23:34:49 -78.82, 29.87 98.69 09/26/2019 23:35:40 -78.79, 29.89 98.70 4.03 51




NCC Satellite Simultaneous Nadir Overpasses (SNOs) Prediction Service
